Weather History for KOKC - November, 2012

Change the Weather History Date:

Monday, November 5, 2012

  Actual Average Record
Temperature  
Mean Temperature 53 °F 55 °F  
Max Temperature 66 °F 66 °F 86 °F (1891)
Min Temperature 40 °F 44 °F 24 °F (1951)
Degree Days  
Heating Degree Days 12 10  
Month to date heating degree days 31 47  
Since 1 July heating degree days 228 211  
Cooling Degree Days 0 1  
Month to date cooling degree days 2 5  
Year to date cooling degree days 2494 2097  
Growing Degree Days 4 (Base 50)    
Moisture  
Dew Point 37 °F    
Average Humidity 56    
Maximum Humidity 77    
Minimum Humidity 34    
Precipitation  
Precipitation 0.00 in 0.08 in 1.23 in (1994)
Month to date precipitation 0.00 0.43  
Year to date precipitation 27.99 33.09  
Snow  
Snow 0.00 in 0.00 in 0.40 in (1951)
Month to date snowfall 0.0 0.0  
Since 1 July snowfall 0.0 T  
Snow Depth -    
Sea Level Pressure  
Sea Level Pressure 30.09 in    
Wind  
Wind Speed 12 mph (NNW)    
Max Wind Speed 31 mph    
Max Gust Speed 37 mph    
Visibility 10 miles    
Events      
T = Trace of Precipitation, MM = Missing Value Source: NWS Daily Summary

Daily Weather History Graph

Daily Weather History Graph

Search for Another Location

Airport or City:

Trip Planner

Search our weather history database for the weather conditions in past years. The results will help you decide how hot, cold, wet, or windy it might be!

Date:

Astronomy

Nov. 05, 2012 Rise Set
Actual Time 6:56 AM CST 5:31 PM CST
Civil Twilight 6:29 AM CST 5:57 PM CST
Nautical Twilight 5:59 AM CST 6:28 PM CST
Astronomical Twilight 5:29 AM CST 6:57 PM CST
Moon 11:09 PM CST (11/5) 12:16 PM CST (11/5)
Length of Visible Light 11h 28m
Length of Day
10h 34m
Waning Gibbous, 62% of the Moon is Illuminated
Nov 5
Waning Gibbous
Nov 6
Last Quarter
Nov 13
New
Nov 20
First Quarter
Nov 28
Full

Hourly Weather History & Observations

Time (CST) Temp. Windchill Dew Point Humidity Pressure Visibility Wind Dir Wind Speed Gust Speed Precip Events Conditions
12:52 AM 48.0 °F - 39.0 °F 71% 30.05 in 10.0 mi SSW 4.6 mph - N/A   Overcast
1:52 AM 48.0 °F - 41.0 °F 77% 30.05 in 10.0 mi Calm Calm - N/A   Overcast
2:52 AM 51.1 °F - 37.9 °F 61% 30.05 in 10.0 mi WSW 4.6 mph - N/A   Overcast
3:52 AM 54.0 °F - 37.9 °F 55% 30.05 in 10.0 mi NW 8.1 mph - N/A   Overcast
4:52 AM 54.0 °F - 37.0 °F 53% 30.04 in 10.0 mi WNW 5.8 mph - N/A   Overcast
5:52 AM 52.0 °F - 37.9 °F 59% 30.06 in 10.0 mi NNW 6.9 mph - N/A   Mostly Cloudy
6:52 AM 54.0 °F - 37.0 °F 53% 30.06 in 10.0 mi NNW 8.1 mph - N/A   Mostly Cloudy
7:52 AM 57.0 °F - 37.0 °F 47% 30.09 in 10.0 mi NNW 12.7 mph - N/A   Mostly Cloudy
8:52 AM 60.1 °F - 37.0 °F 42% 30.10 in 10.0 mi NNW 18.4 mph - N/A   Scattered Clouds
9:52 AM 62.1 °F - 37.9 °F 41% 30.10 in 10.0 mi NNW 24.2 mph 29.9 mph N/A   Partly Cloudy
10:52 AM 64.0 °F - 39.0 °F 40% 30.11 in 10.0 mi NNW 18.4 mph - N/A   Partly Cloudy
11:52 AM 64.9 °F - 37.0 °F 36% 30.10 in 10.0 mi NNW 23.0 mph - N/A   Partly Cloudy
12:52 PM 64.0 °F - 35.1 °F 34% 30.09 in 10.0 mi NNW 24.2 mph 34.5 mph N/A   Partly Cloudy
1:52 PM 64.0 °F - 36.0 °F 35% 30.08 in 10.0 mi NNW 23.0 mph 33.4 mph N/A   Partly Cloudy
2:52 PM 64.0 °F - 36.0 °F 35% 30.07 in 10.0 mi NNW 21.9 mph - N/A   Partly Cloudy
3:52 PM 62.1 °F - 36.0 °F 38% 30.08 in 10.0 mi North 20.7 mph - N/A   Scattered Clouds
4:52 PM 57.9 °F - 37.9 °F 47% 30.08 in 10.0 mi North 15.0 mph - N/A   Scattered Clouds
5:52 PM 55.0 °F - 37.0 °F 51% 30.10 in 10.0 mi North 11.5 mph - N/A   Scattered Clouds
6:52 PM 53.1 °F - 37.0 °F 55% 30.11 in 10.0 mi North 8.1 mph - N/A   Scattered Clouds
7:52 PM 52.0 °F - 37.0 °F 57% 30.09 in 10.0 mi NNE 9.2 mph - N/A   Partly Cloudy
8:52 PM 48.9 °F - 36.0 °F 61% 30.13 in 10.0 mi North 6.9 mph - N/A   Partly Cloudy
9:52 PM 48.0 °F - 35.1 °F 61% 30.13 in 10.0 mi NNE 6.9 mph - N/A   Scattered Clouds
10:52 PM 46.0 °F - 35.1 °F 66% 30.10 in 10.0 mi Calm Calm - N/A   Partly Cloudy
11:52 PM 41.0 °F 38.0 °F 34.0 °F 76% 30.11 in 10.0 mi WSW 4.6 mph - N/A   Scattered Clouds